When you browse on this site, cookies collect data to enhance your experience and personalize the content and advertising you see.
Visit our Privacy Policy to learn more. By continuing to use the site, you agree to this use of cookies and data.
  • In Österreich
  • Länderverzeichnis
  • Für 7 Tage
  • Wassertemperatur
  • Satellitenkarten
  • Wetterkarte
  • News
  • Widgets
  • user-avatar
    Anmelden

    Stündliche Wetter Rokupr

    Heute, 20 Juli, Samstag

    Zeit Temperatur Niederschläge Wind Luftdruck Luftfeuchtigkeit
    00:00 +26°C° 0.5 mm 2 m/S 758 mmHg 93%
    01:00 +26°C° 0.5 mm 2 m/S 757 mmHg 93%
    02:00 +26°C° 0.5 mm 2 m/S 757 mmHg 94%
    03:00 +26°C° 2 mm 2 m/S 757 mmHg 94%
    04:00 +25°C° 2 mm 2 m/S 757 mmHg 95%
    05:00 +25°C° 0 mm 1 m/S 757 mmHg 95%
    06:00 +25°C° 3.4 mm 1 m/S 757 mmHg 95%
    07:00 +25°C° 3.4 mm 1 m/S 758 mmHg 96%
    08:00 +25°C° 3.4 mm 1 m/S 758 mmHg 97%
    09:00 +26°C° 0.5 mm 1 m/S 758 mmHg 94%
    10:00 +27°C° 0.5 mm 1 m/S 758 mmHg 91%
    11:00 +27°C° 0.5 mm 2 m/S 758 mmHg 88%
    12:00 +28°C° 0.1 mm 2 m/S 758 mmHg 86%
    13:00 +28°C° 0.1 mm 2 m/S 757 mmHg 83%
    14:00 +28°C° 0.1 mm 2 m/S 757 mmHg 81%
    15:00 +28°C° 0.8 mm 1 m/S 757 mmHg 83%
    16:00 +27°C° 0.8 mm 1 m/S 757 mmHg 86%
    17:00 +27°C° 0.8 mm 1 m/S 757 mmHg 89%
    18:00 +26°C° 2.2 mm 1 m/S 758 mmHg 91%
    19:00 +26°C° 2.2 mm 1 m/S 758 mmHg 93%
    20:00 +23°C° 2.2 mm 0 m/S 759 mmHg 95%
    21:00 +23°C° 1 mm 0 m/S 759 mmHg 96%
    22:00 +23°C° 1 mm 0 m/S 759 mmHg 96%
    23:00 +23°C° 1 mm 0 m/S 759 mmHg 97%

    Morgen, 21 Juli, Sonntag

    Zeit Temperatur Niederschläge Wind Luftdruck Luftfeuchtigkeit
    00:00 +23°C° 0.1 mm 0 m/S 759 mmHg 97%
    01:00 +23°C° 0.1 mm 0 m/S 758 mmHg 96%
    02:00 +23°C° 0.1 mm 0 m/S 758 mmHg 96%
    03:00 +23°C° 0 mm 0 m/S 758 mmHg 96%
    04:00 +23°C° 0 mm 0 m/S 758 mmHg 96%
    05:00 +23°C° 0 mm 0 m/S 757 mmHg 96%
    06:00 +23°C° 0 mm 0 m/S 758 mmHg 94%
    07:00 +24°C° 0 mm 0 m/S 758 mmHg 92%
    08:00 +24°C° 0 mm 0 m/S 759 mmHg 90%
    09:00 +26°C° 0.1 mm 0 m/S 759 mmHg 85%
    10:00 +29°C° 0.1 mm 1 m/S 759 mmHg 80%
    11:00 +30°C° 0.1 mm 1 m/S 759 mmHg 74%
    12:00 +30°C° 0.5 mm 2 m/S 758 mmHg 74%
    13:00 +30°C° 0.5 mm 3 m/S 758 mmHg 74%
    14:00 +30°C° 0.5 mm 3 m/S 757 mmHg 74%
    15:00 +30°C° 0.1 mm 3 m/S 757 mmHg 76%
    16:00 +29°C° 0.1 mm 3 m/S 757 mmHg 78%
    17:00 +28°C° 0.1 mm 3 m/S 756 mmHg 80%
    18:00 +28°C° 0 mm 3 m/S 757 mmHg 84%
    19:00 +27°C° 0 mm 2 m/S 757 mmHg 88%
    20:00 +26°C° 0 mm 2 m/S 758 mmHg 92%
    21:00 +26°C° 0.1 mm 2 m/S 758 mmHg 93%
    22:00 +26°C° 0.1 mm 2 m/S 758 mmHg 93%
    23:00 +26°C° 0.1 mm 2 m/S 758 mmHg 94%

    übermorgen, 22 Juli, Montag

    Zeit Temperatur Niederschläge Wind Luftdruck Luftfeuchtigkeit
    00:00 +26°C° 0.8 mm 2 m/S 758 mmHg 94%
    01:00 +26°C° 0.8 mm 2 m/S 758 mmHg 94%
    02:00 +26°C° 0.8 mm 2 m/S 757 mmHg 94%
    03:00 +26°C° 0.8 mm 2 m/S 757 mmHg 94%
    04:00 +26°C° 0.8 mm 2 m/S 757 mmHg 94%
    05:00 +26°C° 0.8 mm 2 m/S 757 mmHg 94%
    06:00 +26°C° 1.9 mm 2 m/S 757 mmHg 93%
    07:00 +27°C° 1.9 mm 2 m/S 758 mmHg 91%
    08:00 +27°C° 1.9 mm 2 m/S 758 mmHg 90%
    09:00 +28°C° 2.2 mm 2 m/S 758 mmHg 89%
    10:00 +28°C° 2.2 mm 2 m/S 758 mmHg 89%
    11:00 +28°C° 2.2 mm 2 m/S 758 mmHg 88%
    12:00 +28°C° 1.8 mm 2 m/S 757 mmHg 87%
    13:00 +28°C° 1.8 mm 2 m/S 757 mmHg 86%
    14:00 +28°C° 1.8 mm 3 m/S 756 mmHg 85%
    15:00 +28°C° 0.8 mm 3 m/S 756 mmHg 86%
    16:00 +28°C° 0.8 mm 2 m/S 756 mmHg 88%
    17:00 +27°C° 0.8 mm 2 m/S 756 mmHg 89%
    18:00 +27°C° 0.2 mm 2 m/S 756 mmHg 91%
    19:00 +26°C° 0.2 mm 2 m/S 757 mmHg 92%
    20:00 +26°C° 0.2 mm 2 m/S 757 mmHg 93%
    21:00 +26°C° 0.1 mm 2 m/S 758 mmHg 94%
    22:00 +26°C° 0.1 mm 2 m/S 758 mmHg 94%
    23:00 +25°C° 0.1 mm 2 m/S 758 mmHg 95%

    23 Juli, Dienstag

    Zeit Temperatur Niederschläge Wind Luftdruck Luftfeuchtigkeit
    00:00 +25°C° 0.3 mm 2 m/S 758 mmHg 95%
    01:00 +25°C° 0.3 mm 2 m/S 757 mmHg 95%
    02:00 +25°C° 0.3 mm 1 m/S 757 mmHg 95%
    03:00 +25°C° 0.5 mm 1 m/S 757 mmHg 95%
    04:00 +25°C° 0.5 mm 1 m/S 757 mmHg 95%
    05:00 +25°C° 0.5 mm 1 m/S 757 mmHg 95%
    06:00 +26°C° 0.3 mm 1 m/S 757 mmHg 94%
    07:00 +26°C° 0.3 mm 1 m/S 757 mmHg 92%
    08:00 +27°C° 0.3 mm 1 m/S 758 mmHg 90%
    09:00 +28°C° 2 mm 1 m/S 758 mmHg 88%
    10:00 +28°C° 2 mm 2 m/S 758 mmHg 86%
    11:00 +29°C° 2 mm 2 m/S 758 mmHg 83%
    12:00 +29°C° 3.8 mm 2 m/S 757 mmHg 84%
    13:00 +29°C° 3.8 mm 3 m/S 757 mmHg 85%
    14:00 +29°C° 3.8 mm 3 m/S 756 mmHg 86%
    15:00 +28°C° 2.7 mm 3 m/S 756 mmHg 88%
    16:00 +27°C° 2.7 mm 3 m/S 756 mmHg 90%
    17:00 +27°C° 2.7 mm 3 m/S 756 mmHg 92%
    18:00 +26°C° 1.4 mm 2 m/S 756 mmHg 92%
    19:00 +26°C° 1.4 mm 2 m/S 757 mmHg 93%
    20:00 +26°C° 1.4 mm 2 m/S 758 mmHg 94%
    21:00 +25°C° 0.5 mm 2 m/S 758 mmHg 95%
    22:00 +25°C° 0.5 mm 2 m/S 758 mmHg 95%
    23:00 +25°C° 0.5 mm 2 m/S 758 mmHg 96%

    24 Juli, Mittwoch

    Zeit Temperatur Niederschläge Wind Luftdruck Luftfeuchtigkeit
    00:00 +25°C° 0.8 mm 1 m/S 758 mmHg 96%
    01:00 +25°C° 0.8 mm 1 m/S 757 mmHg 96%
    02:00 +25°C° 0.8 mm 1 m/S 757 mmHg 97%
    03:00 +25°C° 0.5 mm 1 m/S 757 mmHg 97%
    04:00 +25°C° 0.5 mm 1 m/S 757 mmHg 97%
    05:00 +25°C° 0.5 mm 1 m/S 757 mmHg 97%
    06:00 +25°C° 0.6 mm 1 m/S 757 mmHg 95%
    07:00 +26°C° 0.6 mm 2 m/S 758 mmHg 94%
    08:00 +26°C° 0.6 mm 2 m/S 758 mmHg 93%
    09:00 +26°C° 0.9 mm 2 m/S 758 mmHg 91%
    10:00 +27°C° 0.9 mm 1 m/S 758 mmHg 90%
    11:00 +28°C° 0.9 mm 1 m/S 758 mmHg 88%
    12:00 +28°C° 2.8 mm 2 m/S 758 mmHg 88%
    13:00 +28°C° 2.8 mm 2 m/S 757 mmHg 87%
    14:00 +29°C° 2.8 mm 2 m/S 756 mmHg 87%
    15:00 +28°C° 2.2 mm 2 m/S 756 mmHg 88%
    16:00 +27°C° 2.2 mm 2 m/S 756 mmHg 90%
    17:00 +27°C° 2.2 mm 2 m/S 756 mmHg 92%
    18:00 +26°C° 0.5 mm 2 m/S 757 mmHg 93%
    19:00 +26°C° 0.5 mm 1 m/S 757 mmHg 93%
    20:00 +25°C° 0.5 mm 1 m/S 758 mmHg 94%
    21:00 +25°C° 0.3 mm 1 m/S 758 mmHg 94%
    22:00 +25°C° 0.3 mm 1 m/S 758 mmHg 94%
    23:00 +25°C° 0.3 mm 1 m/S 759 mmHg 94%

    25 Juli, Donnerstag

    Zeit Temperatur Niederschläge Wind Luftdruck Luftfeuchtigkeit
    00:00 +25°C° 0.2 mm 1 m/S 758 mmHg 95%
    01:00 +25°C° 0.2 mm 1 m/S 758 mmHg 95%
    02:00 +25°C° 0.2 mm 1 m/S 757 mmHg 95%
    03:00 +25°C° 0 mm 1 m/S 757 mmHg 95%
    04:00 +23°C° 0 mm 0 m/S 758 mmHg 95%
    05:00 +23°C° 0 mm 0 m/S 758 mmHg 95%
    06:00 +23°C° 0.1 mm 0 m/S 758 mmHg 95%
    07:00 +25°C° 0.1 mm 1 m/S 758 mmHg 95%
    08:00 +25°C° 0.1 mm 1 m/S 759 mmHg 94%
    09:00 +27°C° 0.1 mm 1 m/S 759 mmHg 89%
    10:00 +28°C° 0.1 mm 1 m/S 759 mmHg 84%
    11:00 +29°C° 0.1 mm 1 m/S 758 mmHg 79%
    12:00 +29°C° 1.1 mm 2 m/S 758 mmHg 81%
    13:00 +29°C° 1.1 mm 2 m/S 757 mmHg 82%
    14:00 +29°C° 1.1 mm 3 m/S 756 mmHg 83%
    15:00 +28°C° 0.8 mm 3 m/S 756 mmHg 84%
    16:00 +28°C° 0.8 mm 3 m/S 756 mmHg 85%
    17:00 +28°C° 0.8 mm 3 m/S 756 mmHg 86%
    18:00 +27°C° 0.2 mm 2 m/S 757 mmHg 89%
    19:00 +26°C° 0.2 mm 2 m/S 758 mmHg 91%
    20:00 +25°C° 0.2 mm 2 m/S 758 mmHg 93%
    21:00 +25°C° 0.1 mm 2 m/S 759 mmHg 94%
    22:00 +25°C° 0.1 mm 1 m/S 759 mmHg 94%
    23:00 +25°C° 0.1 mm 1 m/S 759 mmHg 95%
    Mehr zeigen